OBJECT B, 61180

Orbit data source: Space-Track

You're viewing an Uncataloged Satellite

Recently launched and/or uncataloged satellites may have evolving metadata. Metadata may include but not limited to: Owner, Maufacturer, Bus, Motor, and Mission.

OBJECT B, 61180 is a satellite owned by MO RF (CIS) in SSO that was launched on Tue, 17 Sep 2024 UTC via an ANGARA-1.2 launch vehicle from the Plesetsk Missile And Space Complex (PKMTR). Unknown objects in Earth's orbit typically refer to objects detected orbiting the Earth but have not yet been identified or cataloged. These objects could be anything from previously untracked satellites, spent rocket stages, debris from satellite collisions, or even natural meteoroids temporarily captured by Earth's gravity.

Loading next visibility...
Identifier
61180, 2024-166B
Orbit
SSO
Country
Flag of CISCIS
Related business
Manufacturer
VNIIEMI?
Mission
Operational Defense Imaging
Bus & Motor
OO-MKA, Unknown motor
Mass
520 kg wet, ~500 kg dry
Launch date (UTC)
2024-09-17 (1 year ago)
Launch vehicle
ANGARA-1.2
Launch site
Plesetsk Missile And Space Complex (PKMTR)
Object type
Unknown
Shape & HBR
Cyl + 2 Pan, 1.5 m
Radar Cross Section
3.727 m², Large (>1 m²)

Expand to show TLE details & history
Last TLE update: 6 hours ago

TLE from 6 hours ago
0 OBJECT B
1 61180U 24166B   26023.84544881  .00039646  00000-0  26367-3 0  9995
2 61180  96.6986 280.2488 0006940 104.3858 255.8179 15.75307343 78013
Epoch: 2026-01-23T20:17Z
TLE epoch observation values (Epoch: 2026-01-23T20:17:26.777Z)
Latitude
-0.00007°
Longitude
-147.29118°
Altitude
348.088 km
Speed
7.699 km/s
True Right ascension
18h 40m 59s
True Declination
0° 00' 00"
Sunlit
Object was in daylight at epoch
Visualization orbit readout
Latitude
Unknown
Longitude
Unknown
Altitude
Unknown
Speed
Unknown
Apparent Right ascension
Unknown
Apparent Declination
Unknown
Sunlit
N/A
Visualization observer readout
Local Sidereal Time
03:50:55
Azimuth
Unknown
Elevation
Unknown
Doppler factor
Unknown
Orbital elements
Apogee altitude
345.283 km
Perigee altitude
335.957 km
Semi-major axis
6,718.757 km
Eccentricity
0.00069
Inclination
96.6986°
RAAN
280.2488°
Arg. of periapsis
104.3858°
True anomaly
255.74081°
Mean anomaly
255.8179°
Eccentric anomaly
255.77936°
Mean motion
3.94103 °/min
Orbital period
91.35 mins
BSTAR
0.00026367
Loading maneuver chart data...
Computing Atmospheric mass density...
Loading historical data...
Loading historical data...
Loading historical data...
Loading historical data...
Loading historical data...
Loading historical data...
Loading historical data...
Other satellites on launch #166 in the year 2024 (2024-09-17 UTC)

Documentation

Showing up to 5 results
|